EW9267 Weather Reports


Display with metric or nautical units.
time (UTC)temp
F
wind
direction
speed
MPH
gust
MPH
rain 1hr
in
rain 24hr
in
rain mn
in
humidity
%
barometer
mb
20240617113044 68 200 0.0 0.0 0.00 0.00 0.00 97 1021.1
20240617111529 68 200 0.0 0.0 0.00 0.00 0.00 97 1021.0
20240617110030 68 200 0.0 0.0 0.00 0.00 0.00 97 1020.8
20240617104527 68 200 0.0 0.0 0.00 0.00 0.00 97 1020.7
20240617103026 68 200 0.0 0.0 0.00 0.00 0.00 97 1020.5
20240617101529 68 200 0.0 0.0 0.00 0.00 0.00 97 1020.5
20240617100024 69 200 0.0 0.0 0.00 0.00 0.00 96 1020.2
20240617094523 69 200 0.0 0.0 0.00 0.00 0.00 96 1020.0
20240617093023 69 200 0.0 0.0 0.00 0.00 0.00 97 1020.0
20240617091522 69 200 0.0 0.0 0.00 0.00 0.00 96 1020.1
20240617090027 69 200 0.0 0.0 0.00 0.00 0.00 96 1020.0
20240617084528 69 200 0.0 0.0 0.00 0.00 0.00 96 1020.0
20240617083019 69 200 0.0 0.0 0.00 0.00 0.00 96 1019.9
20240617081517 70 200 0.0 0.0 0.00 0.00 0.00 95 1020.0
20240617080018 70 200 0.0 0.0 0.00 0.00 0.00 95 1020.0
20240617074514 70 200 0.0 0.0 0.00 0.00 0.00 95 1020.0
20240617073027 71 200 0.0 0.0 0.00 0.00 0.00 94 1020.1
20240617071511 71 200 0.0 0.0 0.00 0.00 0.00 93 1020.1
20240617070012 71 200 0.0 0.0 0.00 0.00 0.00 93 1020.2
20240617064511 71 200 0.0 0.0 0.00 0.00 0.00 93 1020.3
20240617063009 71 200 0.0 0.0 0.00 0.00 0.00 93 1020.3
20240617061508 71 200 0.0 0.0 0.00 0.00 0.00 93 1020.3
20240617060009 71 200 0.0 0.0 0.00 0.00 0.00 93 1020.4
20240617054507 72 200 0.0 0.0 0.00 0.00 0.00 93 1020.2
20240617053006 72 200 0.0 0.0 0.00 0.00 0.00 92 1020.2
20240617051505 72 200 0.0 0.0 0.00 0.00 0.00 92 1020.3
20240617050003 72 200 0.0 0.0 0.00 0.00 0.00 92 1020.3
20240617044503 72 200 0.0 0.0 0.00 0.00 0.00 93 1020.4
20240617043002 72 200 0.0 0.0 0.00 0.00 0.00 93 1020.4
20240617041600 72 200 0.0 0.0 0.00 0.00 0.00 92 1020.6
20240617040111 72 200 0.0 0.0 0.00 0.00 0.00 92 1020.7
20240617034559 72 200 0.0 0.0 0.00 0.00 0.00 92 1020.6
20240617033058 72 200 0.0 0.0 0.00 0.00 0.00 92 1020.5
20240617031557 73 200 0.0 0.0 0.00 0.00 0.00 92 1020.3
20240617030059 73 200 0.0 0.0 0.00 0.00 0.00 91 1020.1
20240617024559 73 200 0.0 0.0 0.00 0.00 0.00 91 1020.2
20240617023056 73 200 0.0 0.0 0.00 0.00 0.00 91 1020.2
20240617021605 73 200 0.0 0.0 0.00 0.00 0.00 91 1020.0
20240617020055 73 200 0.0 0.0 0.00 0.00 0.00 91 1019.9
20240617014554 74 200 0.0 0.0 0.00 0.00 0.00 90 1019.8
20240617013102 74 200 0.0 0.0 0.00 0.00 0.00 90 1019.7
20240617011553 74 200 0.0 0.0 0.00 0.00 0.00 89 1019.6
20240617010106 74 200 0.0 0.0 0.00 0.00 0.00 89 1019.4
20240617004553 74 200 0.0 0.0 0.00 0.00 0.00 88 1019.4
20240617003053 74 200 1.0 0.0 0.00 0.00 0.00 88 1019.0
20240617001551 75 200 1.0 0.0 0.00 0.00 0.00 87 1018.9
20240617000052 75 200 1.0 0.0 0.00 0.00 0.00 87 1018.9
20240616234551 75 200 0.0 0.0 0.00 0.00 0.00 86 1018.9
20240616233055 76 200 0.0 0.0 0.00 0.00 0.00 85 1018.6
20240616231601 76 200 0.0 0.0 0.00 0.00 0.00 85 1018.5
20240616230049 76 200 1.0 0.0 0.00 0.00 0.00 84 1018.5
20240616224549 77 200 0.0 0.0 0.00 0.00 0.00 82 1018.4
20240616223055 78 200 0.0 0.0 0.00 0.00 0.00 81 1018.2
20240616221548 78 200 1.0 0.0 0.00 0.00 0.00 80 1018.1
20240616220047 78 200 0.0 0.0 0.00 0.00 0.00 79 1018.1
20240616214546 78 200 0.0 0.0 0.00 0.00 0.00 79 1018.3
20240616213051 79 200 0.0 0.0 0.00 0.00 0.00 77 1018.4
20240616211546 80 200 0.0 0.0 0.00 0.00 0.00 75 1018.2
20240616210043 79 200 0.0 0.0 0.00 0.00 0.00 78 1018.1
20240616204542 78 200 0.0 0.0 0.00 0.00 0.00 78 1018.6
20240616203043 79 200 0.0 0.0 0.00 0.00 0.00 77 1018.7
20240616201546 78 200 0.0 0.0 0.00 0.00 0.00 76 1018.6
20240616200039 78 200 1.0 0.0 0.00 0.00 0.00 78 1018.7
20240616194539 77 200 0.0 0.0 0.00 0.00 0.00 80 1019.0
20240616193038 77 200 0.0 0.0 0.00 0.00 0.00 79 1019.1
20240616191538 78 200 1.0 0.0 0.00 0.00 0.00 78 1019.1
20240616190041 77 200 1.0 0.0 0.00 0.00 0.00 78 1019.1
20240616184537 78 200 1.0 0.0 0.00 0.00 0.00 76 1019.2
20240616183036 78 200 1.0 0.0 0.00 0.00 0.00 76 1019.0
20240616181534 78 200 1.0 0.0 0.00 0.00 0.00 76 1019.2
20240616180035 77 200 1.0 0.0 0.00 0.00 0.00 76 1019.3
20240616174534 77 200 1.0 0.0 0.00 0.00 0.00 76 1019.5
20240616173036 78 200 1.0 0.0 0.00 0.00 0.00 75 1019.7
20240616171542 78 200 1.0 0.0 0.00 0.00 0.00 74 1019.8
20240616170034 78 200 0.0 0.0 0.00 0.00 0.00 73 1020.1
20240616164541 78 200 1.0 0.0 0.00 0.00 0.00 74 1020.0
20240616163029 76 200 1.0 0.0 0.00 0.00 0.00 75 1020.3
20240616161526 76 200 0.0 0.0 0.00 0.00 0.00 74 1020.3
20240616160024 75 200 1.0 0.0 0.00 0.00 0.00 74 1020.1
20240616154524 74 200 1.0 0.0 0.00 0.00 0.00 76 1020.4
20240616153021 74 200 0.0 0.0 0.00 0.00 0.00 77 1020.3
20240616151522 73 200 0.0 0.0 0.00 0.00 0.00 78 1020.3
20240616150016 73 200 0.0 0.0 0.00 0.00 0.00 80 1020.3
20240616144514 72 200 0.0 0.0 0.00 0.00 0.00 80 1020.1
20240616143012 71 200 1.0 0.0 0.00 0.00 0.00 82 1020.1
20240616141514 71 200 1.0 0.0 0.00 0.00 0.00 84 1020.0
20240616140008 70 200 1.0 0.0 0.00 0.00 0.00 84 1019.9
20240616134512 69 200 0.0 0.0 0.00 0.00 0.00 85 1019.8
20240616133009 69 200 0.0 0.0 0.00 0.00 0.00 86 1019.9
20240616131513 68 200 0.0 0.0 0.00 0.00 0.00 89 1019.9
20240616130005 68 200 0.0 0.0 0.00 0.00 0.00 90 1019.7
20240616124505 68 200 0.0 0.0 0.00 0.00 0.00 94 1019.6
20240616123005 68 200 0.0 0.0 0.00 0.00 0.00 96 1019.5
20240616121504 68 200 0.0 0.0 0.00 0.00 0.00 96 1019.2
20240616120109 67 200 0.0 0.0 0.00 0.00 0.00 96 1018.9
20240616114558 67 200 0.0 0.0 0.00 0.00 0.00 96 1018.8